AEA36 LSGG-EDDF

Flight info

Callsign AEA36
Flight time 1h 16m
Altitude 32000
Route SOSAL1N/04 SOSAL N871 KORED DCT BERSU DCT DITON/N0458F330 DCT LADOL/N0459F320 T163 EMPAX EMPAX5B
Aircraft B738/M-SDE2E3FGHIRWXY/LB1

Departure

Time 2026-05-07 18:01
Airport Geneva International Airport (LSGG)

Arrival

Time 2026-05-07 19:17
Airport Frankfurt Main Airport (EDDF)
Time Latitude Longitude Altitude Speed Heading
2026-05-07 17:14 46.23327 6.10969 1392 ft 0 kts 135°
2026-05-07 17:26 46.23327 6.10968 1392 ft 0 kts 135°
2026-05-07 17:38 46.23328 6.10968 1392 ft 0 kts 135°
2026-05-07 17:45 46.23339 6.10951 1395 ft 2 kts 136°
2026-05-07 17:45 46.23351 6.10935 1403 ft 2 kts 139°
2026-05-07 17:45 46.23364 6.10920 1400 ft 2 kts 143°
2026-05-07 17:45 46.23378 6.10907 1403 ft 2 kts 157°
2026-05-07 17:46 46.23394 6.10904 1396 ft 2 kts 210°
2026-05-07 17:46 46.23401 6.10912 1402 ft 0 kts 224°
2026-05-07 17:52 46.23399 6.10909 1400 ft 2 kts 224°
2026-05-07 17:52 46.23382 6.10885 1400 ft 5 kts 224°
2026-05-07 17:53 46.23346 6.10833 1398 ft 9 kts 226°
2026-05-07 17:53 46.23283 6.10789 1394 ft 11 kts 197°
2026-05-07 17:53 46.23215 6.10730 1392 ft 12 kts 225°
2026-05-07 17:53 46.23157 6.10646 1396 ft 12 kts 225°
2026-05-07 17:54 46.23101 6.10563 1395 ft 11 kts 226°
2026-05-07 17:54 46.23046 6.10483 1395 ft 11 kts 225°
2026-05-07 17:54 46.23000 6.10405 1396 ft 9 kts 244°
2026-05-07 17:54 46.22958 6.10332 1395 ft 7 kts 245°
2026-05-07 17:55 46.22963 6.10299 1392 ft 4 kts 302°
2026-05-07 17:55 46.22982 6.10265 1397 ft 5 kts 311°
2026-05-07 17:55 46.22999 6.10240 1397 ft 6 kts 315°
2026-05-07 17:55 46.23032 6.10193 1392 ft 7 kts 315°
2026-05-07 17:56 46.23054 6.10139 1400 ft 2 kts 264°
2026-05-07 17:56 46.23043 6.10112 1393 ft 4 kts 234°
2026-05-07 17:56 46.23021 6.10078 1403 ft 6 kts 226°
2026-05-07 17:56 46.22987 6.10028 1401 ft 8 kts 225°
2026-05-07 17:57 46.22939 6.09957 1403 ft 11 kts 225°
2026-05-07 17:57 46.22876 6.09865 1394 ft 14 kts 225°
2026-05-07 17:57 46.22800 6.09752 1394 ft 17 kts 225°
2026-05-07 17:57 46.22713 6.09624 1394 ft 17 kts 225°
2026-05-07 17:58 46.22630 6.09504 1402 ft 16 kts 225°
2026-05-07 17:58 46.22573 6.09407 1400 ft 10 kts 241°
2026-05-07 17:58 46.22553 6.09320 1406 ft 9 kts 260°
2026-05-07 17:58 46.22553 6.09231 1411 ft 9 kts 279°
2026-05-07 17:59 46.22586 6.09164 1414 ft 9 kts 336°
2026-05-07 17:59 46.22639 6.09186 1419 ft 8 kts 42°
2026-05-07 17:59 46.22680 6.09243 1417 ft 8 kts 44°
2026-05-07 17:59 46.22719 6.09299 1416 ft 8 kts 45°
2026-05-07 18:00 46.22790 6.09404 1421 ft 24 kts 46°
2026-05-07 18:00 46.23035 6.09764 1412 ft 91 kts 45°
2026-05-07 18:00 46.23674 6.10700 1380 ft 168 kts 45°
2026-05-07 18:00 46.24606 6.12066 1785 ft 200 kts 45°
2026-05-07 18:01 46.25583 6.13590 2568 ft 214 kts 47°
2026-05-07 18:01 46.26573 6.15211 3604 ft 214 kts 49°
2026-05-07 18:01 46.27508 6.16809 4770 ft 204 kts 47°
2026-05-07 18:01 46.28465 6.18276 5829 ft 198 kts 46°
2026-05-07 18:02 46.30372 6.21080 7579 ft 192 kts 46°
2026-05-07 18:02 46.31310 6.22441 8306 ft 191 kts 46°
2026-05-07 18:02 46.32284 6.23852 8672 ft 213 kts 46°
2026-05-07 18:03 46.33388 6.25465 8744 ft 239 kts 46°
2026-05-07 18:03 46.34617 6.27263 8890 ft 259 kts 46°
2026-05-07 18:03 46.35911 6.29149 9205 ft 268 kts 46°
2026-05-07 18:03 46.37215 6.31063 9474 ft 266 kts 50°
2026-05-07 18:04 46.38087 6.33392 9728 ft 264 kts 78°
2026-05-07 18:04 46.38426 6.36008 10046 ft 266 kts 84°
2026-05-07 18:04 46.38698 6.38675 10313 ft 269 kts 82°
2026-05-07 18:04 46.39181 6.41310 10583 ft 272 kts 75°
2026-05-07 18:05 46.39750 6.43943 10824 ft 275 kts 74°
2026-05-07 18:05 46.40324 6.46578 11196 ft 273 kts 74°
2026-05-07 18:05 46.40890 6.49186 11612 ft 270 kts 73°
2026-05-07 18:05 46.41450 6.51783 12043 ft 272 kts 73°
2026-05-07 18:06 46.42016 6.54440 12495 ft 280 kts 73°
2026-05-07 18:06 46.42593 6.57179 12934 ft 291 kts 73°
2026-05-07 18:06 46.43191 6.60053 13388 ft 304 kts 73°
2026-05-07 18:06 46.43808 6.63049 13871 ft 317 kts 73°
2026-05-07 18:07 46.44442 6.66163 14304 ft 327 kts 73°
2026-05-07 18:07 46.45086 6.69354 14725 ft 330 kts 73°
2026-05-07 18:07 46.45787 6.72510 15118 ft 329 kts 64°
2026-05-07 18:07 46.46992 6.75314 15558 ft 326 kts 53°
2026-05-07 18:08 46.48347 6.77952 15995 ft 327 kts 51°
2026-05-07 18:08 46.49730 6.80585 16430 ft 329 kts 51°
2026-05-07 18:08 46.51123 6.83228 16875 ft 331 kts 51°
2026-05-07 18:08 46.52527 6.85895 17324 ft 333 kts 51°
2026-05-07 18:09 46.53939 6.88580 17786 ft 336 kts 51°
2026-05-07 18:09 46.55361 6.91291 18249 ft 339 kts 51°
2026-05-07 18:09 46.56974 6.93769 18642 ft 338 kts 35°
2026-05-07 18:09 46.58834 6.95870 19082 ft 340 kts 37°
2026-05-07 18:10 46.60598 6.98121 19476 ft 344 kts 41°
2026-05-07 18:10 46.62295 7.00599 19891 ft 347 kts 45°
2026-05-07 18:10 46.63916 7.03211 20310 ft 349 kts 47°
2026-05-07 18:10 46.65489 7.05907 20741 ft 350 kts 48°
2026-05-07 18:11 46.67038 7.08653 21178 ft 352 kts 49°
2026-05-07 18:11 46.68080 7.10527 21479 ft 353 kts 49°
2026-05-07 18:11 46.70127 7.14234 22076 ft 356 kts 49°
2026-05-07 18:11 46.71680 7.17055 22533 ft 358 kts 49°
2026-05-07 18:12 46.73245 7.19901 23001 ft 361 kts 49°
2026-05-07 18:12 46.74820 7.22763 23477 ft 363 kts 49°
2026-05-07 18:12 46.76406 7.25648 23878 ft 366 kts 49°
2026-05-07 18:12 46.78006 7.28557 24274 ft 369 kts 49°
2026-05-07 18:13 46.79623 7.31481 24686 ft 372 kts 49°
2026-05-07 18:13 46.81253 7.34425 25091 ft 375 kts 49°
2026-05-07 18:13 46.82895 7.37395 25506 ft 377 kts 49°
2026-05-07 18:13 46.84549 7.40392 25931 ft 380 kts 49°
2026-05-07 18:14 46.86211 7.43416 26359 ft 383 kts 49°
2026-05-07 18:14 46.87878 7.46471 26796 ft 386 kts 49°
2026-05-07 18:14 46.89555 7.49551 27233 ft 388 kts 49°
2026-05-07 18:14 46.91237 7.52646 27702 ft 390 kts 49°
2026-05-07 18:15 46.92923 7.55753 28152 ft 391 kts 49°
2026-05-07 18:15 46.94616 7.58874 28641 ft 392 kts 49°
2026-05-07 18:15 46.96312 7.62004 29100 ft 392 kts 49°
2026-05-07 18:15 46.98007 7.65134 29582 ft 392 kts 49°
2026-05-07 18:16 46.99701 7.68267 30060 ft 392 kts 49°
2026-05-07 18:16 47.01369 7.71354 30466 ft 392 kts 49°
2026-05-07 18:16 47.03081 7.74526 30879 ft 391 kts 48°
2026-05-07 18:16 47.04780 7.77675 31007 ft 399 kts 49°
2026-05-07 18:17 47.06518 7.80900 31022 ft 407 kts 49°
2026-05-07 18:17 47.10101 7.87564 31033 ft 425 kts 49°
2026-05-07 18:18 47.13761 7.94425 31023 ft 429 kts 52°
2026-05-07 18:18 47.16906 8.01585 31013 ft 423 kts 56°
2026-05-07 18:19 47.19966 8.08998 31036 ft 425 kts 56°
2026-05-07 18:19 47.23081 8.16421 31038 ft 427 kts 56°
2026-05-07 18:19 47.24632 8.20093 31366 ft 419 kts 56°
2026-05-07 18:20 47.26168 8.23727 31738 ft 417 kts 56°
2026-05-07 18:20 47.27695 8.27345 32121 ft 415 kts 56°
2026-05-07 18:20 47.29364 8.30782 32487 ft 410 kts 44°
2026-05-07 18:20 47.31405 8.33639 32891 ft 402 kts 34°
2026-05-07 18:21 47.33701 8.35906 33267 ft 393 kts 22°
2026-05-07 18:21 47.36140 8.37680 33692 ft 388 kts 21°
2026-05-07 18:21 47.38573 8.39366 34071 ft 385 kts 20°
2026-05-07 18:21 47.40987 8.41023 34406 ft 381 kts 20°
2026-05-07 18:22 47.43371 8.42667 34747 ft 376 kts 20°
2026-05-07 18:22 47.44935 8.43754 34963 ft 373 kts 20°
2026-05-07 18:22 47.48071 8.45947 35153 ft 378 kts 20°
2026-05-07 18:22 47.50505 8.47652 34866 ft 395 kts 21°
2026-05-07 18:23 47.53029 8.49430 34739 ft 407 kts 21°
2026-05-07 18:23 47.58202 8.53104 34786 ft 419 kts 21°
2026-05-07 18:24 47.63518 8.56898 34816 ft 430 kts 21°
2026-05-07 18:24 47.68981 8.60803 34847 ft 441 kts 22°
2026-05-07 18:25 47.74536 8.64785 34833 ft 444 kts 22°
2026-05-07 18:25 47.80101 8.68784 34832 ft 444 kts 22°
2026-05-07 18:26 47.85645 8.72775 34842 ft 442 kts 22°
2026-05-07 18:26 47.91167 8.76759 34854 ft 440 kts 22°
2026-05-07 18:27 47.96659 8.80729 34850 ft 437 kts 22°
2026-05-07 18:27 48.02114 8.84682 34848 ft 435 kts 22°
2026-05-07 18:28 48.07548 8.88629 34846 ft 433 kts 22°
2026-05-07 18:28 48.12955 8.92565 34858 ft 432 kts 22°
2026-05-07 18:29 48.18526 8.95632 34857 ft 423 kts
2026-05-07 18:29 48.24326 8.96589 34854 ft 419 kts
2026-05-07 18:30 48.30131 8.97370 34862 ft 419 kts
2026-05-07 18:30 48.35951 8.98227 34866 ft 421 kts
2026-05-07 18:31 48.41565 8.99088 34860 ft 423 kts
2026-05-07 18:31 48.46875 8.99903 34862 ft 424 kts
2026-05-07 18:32 48.52615 9.00784 34852 ft 425 kts
2026-05-07 18:32 48.58500 9.01690 34852 ft 426 kts
2026-05-07 18:33 48.64409 9.02653 34265 ft 433 kts
2026-05-07 18:33 48.67409 9.03331 33492 ft 437 kts
2026-05-07 18:33 48.70420 9.04082 32691 ft 441 kts
2026-05-07 18:33 48.73454 9.04849 31932 ft 443 kts
2026-05-07 18:34 48.76502 9.05607 31174 ft 445 kts
2026-05-07 18:34 48.79563 9.06351 30435 ft 446 kts
2026-05-07 18:34 48.82635 9.07088 29627 ft 447 kts
2026-05-07 18:34 48.85704 9.07822 28780 ft 447 kts
2026-05-07 18:35 48.88776 9.08537 27955 ft 446 kts
2026-05-07 18:35 48.91857 9.09049 27146 ft 444 kts
2026-05-07 18:35 48.94933 9.09439 26387 ft 444 kts
2026-05-07 18:35 48.98007 9.09830 25629 ft 443 kts
2026-05-07 18:36 49.01068 9.10249 24897 ft 442 kts
2026-05-07 18:36 49.04124 9.10684 24171 ft 441 kts
2026-05-07 18:36 49.07173 9.11121 23437 ft 439 kts
2026-05-07 18:36 49.10211 9.11558 22614 ft 438 kts
2026-05-07 18:37 49.13237 9.11992 21811 ft 434 kts
2026-05-07 18:37 49.16205 9.12419 21016 ft 423 kts
2026-05-07 18:37 49.19097 9.12834 20261 ft 412 kts
2026-05-07 18:37 49.21924 9.13239 19514 ft 403 kts
2026-05-07 18:38 49.24688 9.13635 18791 ft 395 kts
2026-05-07 18:38 49.27403 9.14025 18036 ft 388 kts
2026-05-07 18:38 49.30056 9.14642 17225 ft 383 kts 10°
2026-05-07 18:38 49.32636 9.15539 16444 ft 378 kts 12°
2026-05-07 18:39 49.35175 9.16480 15689 ft 373 kts 12°
2026-05-07 18:39 49.37681 9.17410 14946 ft 368 kts 12°
2026-05-07 18:39 49.40153 9.18313 14229 ft 363 kts 12°
2026-05-07 18:39 49.42595 9.19193 13474 ft 359 kts 12°
2026-05-07 18:40 49.44982 9.20046 12690 ft 355 kts 12°
2026-05-07 18:40 49.47371 9.20896 11911 ft 351 kts 12°
2026-05-07 18:40 49.49722 9.21732 11445 ft 340 kts 11°
2026-05-07 18:40 49.51957 9.22530 11283 ft 320 kts 11°
2026-05-07 18:41 49.54065 9.23283 11131 ft 303 kts 11°
2026-05-07 18:41 49.56056 9.23994 11056 ft 284 kts 11°
2026-05-07 18:41 49.57920 9.24661 11036 ft 266 kts 11°
2026-05-07 18:41 49.59687 9.25292 11065 ft 258 kts 11°
2026-05-07 18:42 49.61448 9.25920 11071 ft 262 kts 11°
2026-05-07 18:42 49.63219 9.26552 11063 ft 261 kts 11°
2026-05-07 18:42 49.64412 9.26979 11056 ft 260 kts 11°
2026-05-07 18:42 49.66168 9.27608 11062 ft 258 kts 11°
2026-05-07 18:43 49.67917 9.28235 11073 ft 258 kts 11°
2026-05-07 18:43 49.69640 9.28854 11071 ft 258 kts 11°
2026-05-07 18:43 49.71385 9.29481 11065 ft 258 kts 11°
2026-05-07 18:43 49.73135 9.30112 11064 ft 258 kts 11°
2026-05-07 18:44 49.74886 9.30741 11059 ft 259 kts 11°
2026-05-07 18:44 49.76639 9.31371 11060 ft 260 kts 11°
2026-05-07 18:44 49.78422 9.32013 10831 ft 266 kts 11°
2026-05-07 18:44 49.80229 9.32664 10597 ft 267 kts 11°
2026-05-07 18:45 49.82030 9.33314 10342 ft 265 kts 11°
2026-05-07 18:45 49.83827 9.33768 10124 ft 259 kts 355°
2026-05-07 18:45 49.85495 9.33000 10074 ft 248 kts 326°
2026-05-07 18:45 49.86728 9.31190 10072 ft 244 kts 303°
2026-05-07 18:46 49.87435 9.28797 10073 ft 247 kts 287°
2026-05-07 18:46 49.87931 9.26235 10068 ft 249 kts 286°
2026-05-07 18:46 49.88406 9.23663 10060 ft 248 kts 286°
2026-05-07 18:46 49.88879 9.21105 10060 ft 246 kts 286°
2026-05-07 18:47 49.89355 9.18557 10058 ft 245 kts 286°
2026-05-07 18:47 49.89831 9.16021 10062 ft 245 kts 286°
2026-05-07 18:47 49.90311 9.13488 10060 ft 244 kts 286°
2026-05-07 18:47 49.90789 9.10965 10059 ft 244 kts 286°
2026-05-07 18:48 49.91268 9.08437 10056 ft 244 kts 286°
2026-05-07 18:48 49.91748 9.05903 10064 ft 245 kts 286°
2026-05-07 18:48 49.92230 9.03355 10065 ft 246 kts 286°
2026-05-07 18:48 49.92712 9.00804 10066 ft 247 kts 286°
2026-05-07 18:49 49.93197 8.98234 10065 ft 248 kts 286°
2026-05-07 18:49 49.93683 8.95655 10063 ft 249 kts 286°
2026-05-07 18:49 49.94434 8.93253 10051 ft 250 kts 311°
2026-05-07 18:49 49.95843 8.91717 10057 ft 251 kts 339°
2026-05-07 18:50 49.97559 8.91273 10066 ft 252 kts 358°
2026-05-07 18:50 49.99318 8.91335 10061 ft 254 kts
2026-05-07 18:50 50.01076 8.91531 10049 ft 255 kts 10°
2026-05-07 18:50 50.02731 8.92526 10068 ft 255 kts 18°
2026-05-07 18:51 50.04463 8.92826 10057 ft 251 kts 348°
2026-05-07 18:51 50.06030 8.91751 10053 ft 248 kts 318°
2026-05-07 18:51 50.07022 8.89613 10059 ft 246 kts 289°
2026-05-07 18:51 50.07177 8.86992 10059 ft 247 kts 259°
2026-05-07 18:52 50.06578 8.84493 10067 ft 248 kts 245°
2026-05-07 18:52 50.05800 8.82078 10058 ft 251 kts 244°
2026-05-07 18:52 50.04999 8.79660 10055 ft 252 kts 244°
2026-05-07 18:52 50.04188 8.77231 10052 ft 253 kts 244°
2026-05-07 18:53 50.03373 8.74796 10044 ft 254 kts 243°
2026-05-07 18:53 50.02556 8.72362 10045 ft 253 kts 243°
2026-05-07 18:53 50.01742 8.69936 10044 ft 253 kts 243°
2026-05-07 18:53 50.00929 8.67513 10042 ft 252 kts 243°
2026-05-07 18:54 50.00118 8.65099 10037 ft 251 kts 243°
2026-05-07 18:54 49.99311 8.62697 10040 ft 250 kts 243°
2026-05-07 18:54 49.98506 8.60302 10042 ft 249 kts 243°
2026-05-07 18:54 49.97704 8.57920 10041 ft 249 kts 243°
2026-05-07 18:55 49.96892 8.55506 10067 ft 258 kts 243°
2026-05-07 18:55 49.96066 8.53051 10046 ft 254 kts 243°
2026-05-07 18:55 49.95253 8.50641 10044 ft 250 kts 243°
2026-05-07 18:55 49.94451 8.48268 10037 ft 248 kts 243°
2026-05-07 18:56 49.93648 8.45891 10048 ft 250 kts 243°
2026-05-07 18:56 49.92840 8.43497 10062 ft 251 kts 243°
2026-05-07 18:56 49.92029 8.41095 10070 ft 252 kts 243°
2026-05-07 18:56 49.91212 8.38680 10066 ft 253 kts 243°
2026-05-07 18:57 49.90395 8.36262 10066 ft 253 kts 243°
2026-05-07 18:57 49.89577 8.33842 10060 ft 253 kts 243°
2026-05-07 18:57 49.88762 8.31424 10064 ft 252 kts 243°
2026-05-07 18:57 49.87955 8.29015 9969 ft 253 kts 243°
2026-05-07 18:58 49.87130 8.26544 9553 ft 260 kts 243°
2026-05-07 18:58 49.86295 8.24040 9169 ft 263 kts 243°
2026-05-07 18:58 49.85450 8.21513 8770 ft 265 kts 243°
2026-05-07 18:58 49.84598 8.18967 8385 ft 267 kts 243°
2026-05-07 18:59 49.83738 8.16402 8007 ft 269 kts 243°
2026-05-07 18:59 49.82876 8.13813 7624 ft 271 kts 247°
2026-05-07 18:59 49.82499 8.10984 7231 ft 271 kts 274°
2026-05-07 18:59 49.83019 8.08231 6856 ft 266 kts 301°
2026-05-07 19:00 49.84294 8.06229 6481 ft 261 kts 329°
2026-05-07 19:00 49.85964 8.05195 6109 ft 257 kts 342°
2026-05-07 19:00 49.87662 8.04411 5712 ft 253 kts 343°
2026-05-07 19:00 49.89343 8.03653 5323 ft 250 kts 343°
2026-05-07 19:01 49.90997 8.02904 4947 ft 246 kts 343°
2026-05-07 19:01 49.92603 8.02169 4557 ft 243 kts 343°
2026-05-07 19:01 49.94219 8.01423 4169 ft 241 kts 343°
2026-05-07 19:01 49.95789 8.00763 4059 ft 226 kts 354°
2026-05-07 19:02 49.97251 8.01139 4043 ft 207 kts 29°
2026-05-07 19:02 49.98189 8.02638 4048 ft 188 kts 67°
2026-05-07 19:02 49.98290 8.04581 4103 ft 184 kts 101°
2026-05-07 19:02 49.97971 8.06523 4078 ft 185 kts 103°
2026-05-07 19:03 49.97647 8.08433 4090 ft 181 kts 103°
2026-05-07 19:03 49.97325 8.10318 4122 ft 180 kts 103°
2026-05-07 19:03 49.97001 8.12204 4078 ft 177 kts 103°
2026-05-07 19:03 49.96896 8.13936 4026 ft 149 kts 70°
2026-05-07 19:04 49.97549 8.15064 4101 ft 154 kts 20°
2026-05-07 19:04 49.98710 8.15089 4075 ft 176 kts 339°
2026-05-07 19:04 49.99771 8.14158 4081 ft 176 kts 325°
2026-05-07 19:04 50.00742 8.13007 4061 ft 175 kts 322°
2026-05-07 19:05 50.01696 8.11841 4061 ft 174 kts 322°
2026-05-07 19:05 50.02644 8.10677 4059 ft 174 kts 322°
2026-05-07 19:05 50.03589 8.09512 4064 ft 173 kts 322°
2026-05-07 19:05 50.04534 8.08346 4061 ft 173 kts 322°
2026-05-07 19:06 50.05479 8.07181 4068 ft 174 kts 322°
2026-05-07 19:06 50.06601 8.04089 4063 ft 177 kts 261°
2026-05-07 19:06 50.05977 8.02466 4083 ft 180 kts 218°
2026-05-07 19:07 50.04795 8.01878 4079 ft 185 kts 177°
2026-05-07 19:07 50.03559 8.02409 4078 ft 186 kts 159°
2026-05-07 19:07 50.02347 8.03126 4089 ft 187 kts 159°
2026-05-07 19:07 50.01129 8.03859 4067 ft 187 kts 158°
2026-05-07 19:08 49.99925 8.04586 4018 ft 184 kts 158°
2026-05-07 19:08 49.98746 8.05297 4020 ft 184 kts 158°
2026-05-07 19:08 49.97532 8.06030 4019 ft 185 kts 158°
2026-05-07 19:08 49.96332 8.06755 4011 ft 184 kts 158°
2026-05-07 19:09 49.95155 8.07466 4009 ft 184 kts 158°
2026-05-07 19:09 49.93965 8.08187 4018 ft 184 kts 156°
2026-05-07 19:09 49.93022 8.09440 4002 ft 180 kts 112°
2026-05-07 19:09 49.92985 8.11281 4017 ft 168 kts 72°
2026-05-07 19:10 49.93306 8.13010 4009 ft 166 kts 72°
2026-05-07 19:10 49.93643 8.14728 4018 ft 167 kts 70°
2026-05-07 19:10 49.94012 8.16437 4016 ft 168 kts 69°
2026-05-07 19:10 49.94398 8.18148 4019 ft 168 kts 69°
2026-05-07 19:11 49.94793 8.19861 4018 ft 169 kts 68°
2026-05-07 19:11 49.95195 8.21576 4014 ft 169 kts 68°
2026-05-07 19:11 49.95599 8.23293 4007 ft 169 kts 68°
2026-05-07 19:11 49.96002 8.25006 4007 ft 168 kts 68°
2026-05-07 19:12 49.96407 8.26718 3901 ft 171 kts 68°
2026-05-07 19:12 49.96815 8.28443 3683 ft 169 kts 68°
2026-05-07 19:12 49.97217 8.30142 3463 ft 166 kts 68°
2026-05-07 19:12 49.97609 8.31797 3243 ft 161 kts 68°
2026-05-07 19:13 49.97993 8.33417 3040 ft 160 kts 68°
2026-05-07 19:13 49.98381 8.35051 2828 ft 162 kts 68°
2026-05-07 19:13 49.98771 8.36692 2607 ft 162 kts 68°
2026-05-07 19:13 49.99157 8.38319 2395 ft 160 kts 68°
2026-05-07 19:14 49.99538 8.39923 2188 ft 154 kts 68°
2026-05-07 19:14 49.99897 8.41435 2002 ft 143 kts 68°
2026-05-07 19:14 50.00250 8.42916 1794 ft 146 kts 69°
2026-05-07 19:14 50.00597 8.44371 1611 ft 141 kts 69°
2026-05-07 19:15 50.00938 8.45802 1437 ft 141 kts 69°
2026-05-07 19:15 50.01281 8.47243 1241 ft 142 kts 69°
2026-05-07 19:15 50.01625 8.48683 1054 ft 142 kts 69°
2026-05-07 19:15 50.01973 8.50104 880 ft 140 kts 69°
2026-05-07 19:16 50.02319 8.51511 691 ft 138 kts 69°
2026-05-07 19:16 50.02648 8.52909 528 ft 138 kts 69°
2026-05-07 19:16 50.02974 8.54293 374 ft 136 kts 69°
2026-05-07 19:16 50.03281 8.55573 350 ft 112 kts 70°
2026-05-07 19:17 50.03489 8.56485 350 ft 51 kts 70°
2026-05-07 19:17 50.03569 8.56824 353 ft 28 kts 70°
2026-05-07 19:17 50.03609 8.57065 357 ft 22 kts 95°
2026-05-07 19:17 50.03575 8.57206 352 ft 6 kts 115°
2026-05-07 19:18 50.03574 8.57211 352 ft 0 kts 115°
2026-05-07 19:21 50.03573 8.57214 359 ft 0 kts 115°
2026-05-07 19:21 50.03572 8.57219 359 ft 1 kts 115°
2026-05-07 19:21 50.03567 8.57233 359 ft 2 kts 120°
2026-05-07 19:22 50.03553 8.57256 355 ft 4 kts 142°
2026-05-07 19:22 50.03519 8.57270 361 ft 7 kts 185°
2026-05-07 19:22 50.03472 8.57218 358 ft 10 kts 244°
2026-05-07 19:22 50.03453 8.57144 355 ft 0 kts 248°
2026-05-07 19:26 50.03451 8.57136 354 ft 2 kts 248°
2026-05-07 19:26 50.03440 8.57092 355 ft 6 kts 248°
2026-05-07 19:26 50.03420 8.57006 352 ft 11 kts 250°
2026-05-07 19:26 50.03390 8.56875 359 ft 15 kts 250°
2026-05-07 19:27 50.03345 8.56707 356 ft 19 kts 247°
2026-05-07 19:27 50.03295 8.56546 352 ft 10 kts 207°
2026-05-07 19:27 50.03239 8.56557 352 ft 9 kts 160°
2026-05-07 19:27 50.03185 8.56567 354 ft 7 kts 205°
2026-05-07 19:28 50.03167 8.56527 350 ft 7 kts 255°
2026-05-07 19:28 50.03151 8.56439 350 ft 10 kts 248°
2026-05-07 19:28 50.03128 8.56319 353 ft 13 kts 255°
2026-05-07 19:28 50.03100 8.56165 353 ft 17 kts 253°
2026-05-07 19:29 50.03056 8.55977 348 ft 20 kts 250°
2026-05-07 19:29 50.03000 8.55772 352 ft 21 kts 249°
2026-05-07 19:29 50.02934 8.55559 352 ft 22 kts 250°
2026-05-07 19:29 50.02878 8.55324 345 ft 24 kts 249°
2026-05-07 19:30 50.02830 8.55162 347 ft 10 kts 243°
2026-05-07 19:30 50.02808 8.55063 346 ft 10 kts 245°
2026-05-07 19:30 50.02773 8.54949 343 ft 14 kts 245°
2026-05-07 19:30 50.02770 8.54891 341 ft 4 kts 305°
2026-05-07 19:31 50.02780 8.54873 351 ft 0 kts 290°
2026-05-07 19:31 50.02778 8.54868 350 ft 0 kts 252°
2026-05-07 19:31 50.02773 8.54867 349 ft 1 kts 199°
2026-05-07 19:31 50.02769 8.54874 343 ft 2 kts 138°
2026-05-07 19:32 50.02738 8.54909 345 ft 8 kts 156°
2026-05-07 19:32 50.02672 8.54946 345 ft 12 kts 154°
2026-05-07 19:32 50.02615 8.54978 343 ft 2 kts 196°
2026-05-07 19:32 50.02602 8.54945 351 ft 6 kts 250°
2026-05-07 19:33 50.02592 8.54907 348 ft 0 kts 249°